weather.gov     
National Weather Service

Terminal Aerodrome Forecast
NWS Homepage
This page is being discontinued on March 12, 2014.
The same data is available at this site. Please update your bookmarks.
Thank you, and we apologize for the inconvenience.
Please send an email to SR-SRH.Webmaster@noaa.gov with any concerns.


Current Version
Previous Version:    01  02  03  04  05  06  07  08  09  10  11  12  13  14  15  16  17  18  19  20  21  22  23  24  25  26  27  28  29  
[Printable]
741
FTUS44 KEPZ 221700
TAFDMN
TAF
KDMN 221738Z 2218/2318 VRB03KT P6SM FEW060 FEW120 BKN250
     FM222100 26007KT P6SM VCTS SCT060CB SCT120
      TEMPO 2222/2302 -TSRA BKN040CB
     FM230300 24006KT P6SM FEW050 BKN120
     FM231600 29008KT P6SM FEW060=


U.S. Dept. of Commerce
NOAA National Weather Service
1325 East West Highway
Silver Spring, MD 20910
E-mail: w-nws.webmaster@noaa.gov
Page last modified: May 16, 2007
NATIONAL WEATHER SERVICE: for Safety, for Work, for Fun - FOR LIFE